Regional Weather Roundup
Issued by NWS Upton, NY

Current Version | Previous Version | Graphics & Text | Print | Product List | Glossary Off
Versions: 1 2 3 4 5 6 7 8 9 10 11 12 13 14 15 16 17 18 19 20 21 22 23 24 25 26 27 28 29 30 31 32 33 34 35 36 37 38 39 40 41 42 43 44 45 46 47

000
ASUS41 KOKX 040008
RWROKX

REGIONAL WEATHER ROUNDUP
NATIONAL WEATHER SERVICE NEW YORK NY
800 PM EDT SUN MAY 03 2015

NOTE: "FAIR" INDICATES FEW OR NO CLOUDS BELOW 12,000 FEET WITH NO
SIGNIFICANT WEATHER AND/OR OBSTRUCTIONS TO VISIBILITY.

NYZ071-072-176-178-NJZ106-104-040100-
NEW YORK CITY METRO AREA


CITY           SKY/WX    TMP DP  RH WIND       PRES   REMARKS
CENTRAL PARK   CLEAR     67  38  34 S3        30.11R
LAGUARDIA APRT MOCLDY    65  41  41 S8        30.08S
KENNEDY INTL   PTCLDY    57  48  72 S7        30.11R
NEWARK/LIBERTY PTCLDY    71  39  31 S8        30.08R
BRNX BOT. GARD   N/A     61  43  51 SE7       30.10S
TETERBORO      PTCLDY    69  36  29 S9        30.07R
$$

NYZ177-179-078>081-040100-
LONG ISLAND NEW YORK

CITY           SKY/WX    TMP DP  RH WIND       PRES   REMARKS
FARMINGDALE    CLEAR     56  47  71 SW13      30.12R
ISLIP          MOCLDY    55  46  71 S7        30.11R
SHIRLEY        CLEAR     53  44  71 S7        30.14R
WESTHAMPTON    CLEAR     50  40  68 S6        30.15R
MONTAUK POINT    N/A     52  44  74 S6        30.15R
$$

NYZ052-065-067-040100-
HUDSON VALLEY

CITY           SKY/WX    TMP DP  RH WIND       PRES   REMARKS
WHITE PLAINS   PTCLDY    61  43  51 S5        30.10R
NEWBURGH       PTCLDY    70  43  37 VRB6      30.07R
MONTGOMERY     MOCLDY    69  49  48 CALM      30.05R
POUGHKEEPSIE   PTCLDY    74  38  27 S5        30.04R
ALBANY         PTCLDY    73  38  27 CALM      30.04R
$$

NJZ001-105-106-008-010-013-015-019>022-104-040100-
NEW JERSEY

CITY           SKY/WX    TMP DP  RH WIND       PRES   REMARKS
NEWARK/LIBERTY PTCLDY    71  39  31 S8        30.08R
TETERBORO      PTCLDY    69  36  29 S9        30.07R
CALDWELL       PTCLDY    72  40  31 S5        30.07R
MORRISTOWN     PTCLDY    72  39  30 S6        30.07R
SOMERVILLE     CLEAR     69  41  36 SE8       30.05R
SUSSEX         MOCLDY    73  39  29 CALM      30.07R
ANDOVER          N/A     66  53  63 CALM      30.07R
TRENTON        CLEAR     70  42  36 S14       30.08R
MILLVILLE      CLEAR     66  49  54 CALM      30.11R
ATLANTIC CITY  CLEAR     58  50  75 S6        30.13R
WRIGHTSTOWN    CLEAR     66  42  41 S8        30.08R
TOMS RIVER     CLEAR     63  45  51 S7        30.11S
BELMAR         CLEAR     64  45  48 S5        30.10S
$$

PAZ047>061-062-071-040100-
EASTERN PENNSYLVANIA

CITY           SKY/WX    TMP DP  RH WIND       PRES   REMARKS
PHILADELPHIA   PTCLDY    77  36  22 SW6       30.08R
ALLENTOWN      PTCLDY    67  38  34 SW6       30.06R
SCRANTON       CLEAR     73  32  22 NW3       30.07R
$$

CTZ002-004>006-009-010-012-RIZ004-006-007-MAZ004-011-015-040100-
SOUTHERN NEW ENGLAND
 IN CT

CITY           SKY/WX    TMP DP  RH WIND       PRES   REMARKS
BRADLEY INTL   MOCLDY    71  43  36 S12       30.06R
HARTFORD       PTCLDY    67  44  43 S9        30.08R
DANBURY        PTCLDY    68  40  35 S6        30.10R
WTRBRY/OXFORD  PTCLDY    63  43  48 S8        30.10S
BRIDGEPORT     PTCLDY    59  46  62 S13       30.10S
MERIDEN        PTCLDY    62  43  49 S8G17     30.10R
NEW HAVEN      PTCLDY    56  45  66 SE9       30.11R
CHESTER        FAIR      55  45  67 S8        30.13R
GROTON         CLEAR     49  42  77 SE9       30.13R
WILLIMANTIC    PTCLDY    62  45  53 S7        30.11R

 IN RI

CITY           SKY/WX    TMP DP  RH WIND       PRES   REMARKS
PROVIDENCE     CLEAR     52  39  61 S10       30.14R
BLOCK ISLAND   CLEAR     48  43  81 S12       30.14S
WESTERLY       CLEAR     50  42  74 S5        30.15R

 IN MA

CITY           SKY/WX    TMP DP  RH WIND       PRES   REMARKS
BOSTON         MOCLDY    58  42  55 S14       30.10R
WORCESTER      MOCLDY    64  42  44 SW13      30.10R
WESTFIELD      MOCLDY    66  47  50 SE3       30.06R
PROVINCETOWN   CLEAR     48  39  71 S12       30.14R
NANTUCKET      CLEAR     45  40  82 S7        30.17R
$$

ANZ330-335-338-340-345-350-353-355-040100-
COASTAL MARINE OBSERVATIONS


STATION/POSITION TIME  SKY/WX   TEMP    WIND        PRES    VSBY  WAVE
                                AIR SEA DIR/SP/G                  HT/PER
                 (UTC)          (F)     (DEG/KT/KT) (MB)    (MI)  (FT/S)
NY HARB ENTRANCE 2350            53 52  200/ 12/ 14 1018.8          4/ 8
4S FIRE IS       2303               49                N/A           5/ 8
20S FIRE ISLAND  2350            50 48  180/ 10/ 10 1019.8          4/ 8
GREAT SOUTH BAY  2300            53 58  230/  6/  8   N/A
23SW MTP         2350            49 45  200/ 10/ 12 1020.3          4/ 9
HUDSON CANYON    NOT AVBL
EXECUTION ROCKS  NOT AVBL
WESTERN LI SOUND NOT AVBL
CENTRAL LI SOUND NOT AVBL
EASTERN LI SOUND 2300            51     190/  4/  6   N/A
ROBBINS REEF     2300            65     170/ 17/ 19 1017.1
$$


>>>>>>>>>>>>>>>>>>>>>>>>>>>> KEY <<<<<<<<<<<<<<<<<<<<<<<<<<<
>                                                          <
>     SKY/WX - SKY CONDITION/PRESENT WEATHER               <
>     TMP    - TEMPERATURE IN FAHRENHEIT                   <
>     DP     - DEWPOINT IN FAHRENHEIT                      <
>     RH     - RELATIVE HUMIDITY IN PERCENT                <
>     WIND   - DIRECTION AND SPEED IN MPH                  <
>     PRES   - MEAN SEA LEVEL PRESSURE IN INCHES OF HG     <
>     WCI    - WIND CHILL INDEX                            <
>     VSB    - VISIBILITY IN MILES                         <
>     HX     - HEAT INDEX                                  <
>     TC     - TEMPERATURE IN CELSIUS                      <
>     VRB    - VARIABLE WIND DIRECTION                     <
>                                                          <
>>>>>>>>>>>>>>>>>>>>>>>>>>>> KEY <<<<<<<<<<<<<<<<<<<<<<<<<<<




USA.gov is the U.S. government's official web portal to all federal, state and local government web resources and services.